sat.trackr.live / text

‹ back to catalog

STARLINK-37713

NORAD 69212 · 2026-115B

PAYLOAD ACTIVE UNKNOWN

§ Identity

Operator
Country
US
Launch date
2026-05-26
Launch site
AFWTR
Launch vehicle
Mass (kg)
RCS (m²)

Purposes: comms

External: N2YO · Heavens-Above · Gunter

§ Orbital elements

Epoch: 2026-09-20T00:38:25.596960Z

Period
93.91 min
Inclination
97.2840°
Eccentricity
0.0001980
Mean motion
15.33439336 rev/d
Perigee alt
464.2 km
Apogee alt
466.9 km
Semi-major
6,843.7 km
B*
7.1792e-4
RAAN
279.0604°
Arg perigee
84.9718°
Mean anomaly
275.1750°
Rev number
1,921

§ Raw data

STARLINK-377131 69212U 26115B   26263.02668515  .00023170  00000+0  71792-3 0  99982 69212  97.2840 279.0604 0001980  84.9718 275.1750 15.33439336 19215

JSON: /api/v1/satellites/69212 · /tle

For live sub-satellite position, see the globe view (requires WebGL).

§ Visibility from observer

Set your observer location to see the next 7 days of passes ≥ 10°. The values pass through the URL so the page stays shareable.

No JS? Fill the form by hand. The geolocation button needs JavaScript.